Weather in Van

Turkey     38°30′28″N   43°22′36″E
temp.,
°C
wind,
m/s
gust,
m/s
humid.,
%
clouds,
%
prec.,
mm/h
press.,
hPa
HPBL,
m
6 may, thu
thu600:00+8s227659 0.5 101313
03:00+7se117649 0.6 101210
06:00+8ese117110 0.0 101220
09:00+12w235183 0.1 1011949
12:00+15wnw46414 0.0 10111529
15:00+15w354087 0.0 10101389
18:00+14wnw2343100 0.0 1010768
21:00+11sse2258100 0.2 1012248
7 may, fri
fri700:00+10s116899 0.1 101129
03:00+10sse1169100 0.3 101134
06:00+9e2272100 0.0 1011135
09:00+11nw2259100 0.6 1011591
12:00+13nw3354100 0.4 10121457
15:00+12nw566261 1.1 10131087
18:00+11wnw236796 1.1 1014591
21:00+8ese008040 1.4 101612
8 may, sat
sat800:00+7ese11835 0.0 101711
03:00+7e22844 0.0 101714
06:00+7ese32800 0.0 101847
09:00+12ene12530 0.0 1016910
12:00+16wnw32401 0.0 10141429
15:00+17wnw32410 0.0 10131067
18:00+15wsw224689 0.0 1014338
21:00+11sw11560 0.0 101611
9 may, sun
sun900:00+10ssw11555 0.0 101510
03:00+9se11565 0.0 101410
06:00+11sse1158100 0.0 101511
09:00+16ssw24375 0.0 1013917
12:00+19w58291 0.0 10111970
15:00+19wsw6113284 0.0 10092333
18:00+18sw815410 0.0 10082016
21:00+14wsw6144492 0.0 1011607
10 may, mon
mon1000:00+11s22523 0.0 100913
03:00+9wsw22673 0.1 101020
06:00+9wnw22742 0.0 101154
09:00+12w456935 0.0 1012896
12:00+14w555963 0.0 1011874
15:00+14w34505 0.0 1010865
18:00+13w22430 0.0 1010546
21:00+9nnw11570 0.0 101110